Regional Weather Roundup
Issued by NWS Cleveland, OH

Home | Current Version | Previous Version | Graphics & Text | Print | Product List | Glossary On
Versions: 1 2 3 4 5 6 7 8 9 10 11 12 13 14 15 16 17 18 19 20 21 22 23 24 25 26 27 28 29 30 31 32 33 34 35 36 37 38 39 40 41 42 43 44 45 46 47 48 49 50
987
ASUS41 KCLE 222110
RWRCLE
OHIO REGIONAL WEATHER ROUNDUP
NATIONAL WEATHER SERVICE WILMINGTON, OH
500 PM EDT THU JUN 22 2017

NOTE: "FAIR" INDICATES FEW OR NO CLOUDS BELOW 12,000 FEET WITH NO
SIGNIFICANT WEATHER AND/OR OBSTRUCTIONS TO VISIBILITY.

OHZ001>008-015>018-024>027-034-035-043-044-222200-
   NORTHWEST OHIO

CITY           SKY/WX    TMP DP  RH WIND       PRES   REMARKS
DEFIANCE       PTSUNNY   86  67  52 SW16G32   29.84F
FINDLAY        FAIR      87  66  49 SW22G31   29.86F
TOLEDO EXPRESS FAIR      84  69  60 SW10      29.84F
TOLEDO EXEC    FAIR      88  67  49 SW17G24   29.85S HX  91
LIMA           FAIR      85  68  56 SW17G26   29.89F
$$

OHZ009>014-019>023-028>033-038-089-222200-
   NORTHEAST OHIO

CITY           SKY/WX    TMP DP  RH WIND       PRES   REMARKS
CLE-HOPKINS    FAIR      88  67  49 SW16G28   29.89F HX  91
CLE-LAKEFRONT  FAIR      87  65  47 S18       29.86F
CUY CO. ARPT   PTSUNNY   86  66  51 SW7       29.89F
LORAIN-ELYRIA  FAIR      86  62  44 SW14      29.88F
ASHTABULA      FAIR      80  71  74 S9        29.90F
AKRON-CANTON   PTSUNNY   86  65  49 SW20      29.93F
WOOSTER        FAIR      86  64  47 SW18      29.93F
MANSFIELD      FAIR      84  67  56 SW16G24   29.93F
YOUNGSTOWN     CLOUDY    82  67  60 SW13      29.92F
$$

OHZ042-051>053-060>062-070>072-077>081-222200-
  SOUTHWEST OHIO

CITY           SKY/WX    TMP DP  RH WIND       PRES   REMARKS
CINC-COVINGTON CLOUDY    79  68  69 S17G24    29.95F
CINC-LUNKEN    PTSUNNY   81  71  71 S18G24    29.94F
HAMILTON       CLOUDY    82  70  66 SW9       29.94F
DAYTON         PTSUNNY   82  69  64 SW18G26   29.93F
WRIGHT-PAT AFB PTSUNNY   83  71  66 S20       29.92F
DAYTON GENERAL CLOUDY    80  67  64 SW13G23   29.94F
WILMINGTON     CLOUDY    80  70  71 S17       29.96S
$$

OHZ036-037-039>041-045>050-054>059-063>069-073>076-082>088-222200-
  CENTRAL AND SOUTHEAST OHIO

CITY           SKY/WX    TMP DP  RH WIND       PRES   REMARKS
COLUMBUS       CLOUDY    84  70  62 SW12      29.93F
OSU AIRPORT    PTSUNNY   83  70  64 S17G24    29.93F
BOLTON FIELD   CLOUDY    81  73  78 SW13G18   29.95F
RICKENBACK AFB PTSUNNY   83  71  66 S15       29.94F
NEWARK         FAIR      83  68  60 S13       29.94F
MARION         FAIR      85  67  54 SW16      29.92F
LANCASTER      FAIR      82  70  66 S10       29.96F
ZANESVILLE     FAIR      83  70  64 S13       29.96F
NEW PHILLY     FAIR      84  68  58 S10       29.95F
$$




USA.gov is the U.S. government's official web portal to all federal, state and local government web resources and services.